This is the latest recevied weather packets stored in our database for station/object KC0QBU-13. If no packets are shown the sender has not sent any weather packets the latest 10 day(s).
| Time | Temp. | Humidity | Pressure | Rain* | Wind** | Luminosity | Snow |
|---|---|---|---|---|---|---|---|
| 1777770981 | 13.89° C | 39% | 1019.2 hPa | 0 mm | - | - | - |
| 1777770651 | 14.44° C | 39% | 1019.1 hPa | 0 mm | - | - | - |
| 1777770351 | 14.44° C | 39% | 1019.1 hPa | 0 mm | - | - | - |
| 1777770051 | 15° C | 37% | 1019.1 hPa | 0 mm | - | - | - |
| 1777769751 | 15° C | 36% | 1019.1 hPa | 0 mm | - | - | - |
| 1777769421 | 15° C | 36% | 1019.1 hPa | 0 mm | - | - | - |
| 1777769091 | 15.56° C | 35% | 1019.2 hPa | 0 mm | - | - | - |
| 1777768791 | 15.56° C | 35% | 1019.2 hPa | 0 mm | - | - | - |
| 1777768491 | 15.56° C | 33% | 1019.2 hPa | 0 mm | - | - | - |
| 1777768161 | 15.56° C | 35% | 1019.2 hPa | 0 mm | - | - | - |
| 1777767861 | 16.11° C | 37% | 1019.3 hPa | 0 mm | - | - | - |
| 1777767531 | 16.11° C | 34% | 1019.2 hPa | 0 mm | - | - | - |
| 1777767201 | 16.11° C | 33% | 1019.2 hPa | 0 mm | - | - | - |
| 1777766871 | 16.67° C | 34% | 1019.3 hPa | 0 mm | - | - | - |
| 1777766541 | 16.67° C | 33% | 1019.3 hPa | 0 mm | - | - | - |
| 1777766241 | 16.67° C | 31% | 1019.3 hPa | 0 mm | - | - | - |
| 1777765941 | 16.67° C | 30% | 1019.3 hPa | 0 mm | - | - | - |
| 1777765641 | 16.67° C | 32% | 1019.3 hPa | 0 mm | - | - | - |
| 1777765311 | 17.22° C | 33% | 1019.4 hPa | 0 mm | - | - | - |
| 1777765011 | 17.22° C | 31% | 1019.4 hPa | 0 mm | - | - | - |
| 1777764681 | 17.78° C | 32% | 1019.4 hPa | 0 mm | - | - | - |
| 1777764381 | 17.22° C | 31% | 1019.4 hPa | 0 mm | - | - | - |
| 1777764051 | 17.22° C | 31% | 1019.4 hPa | 0 mm | - | - | - |
| 1777763721 | 17.22° C | 33% | 1019.5 hPa | 0 mm | - | - | - |
| 1777763391 | 17.22° C | 32% | 1019.6 hPa | 0 mm | - | - | - |
* Rain latest hour (hover to see other rain measurements)
** Current wind speed in m/s (hover to see current wind gust speed)